LIC0032 LEBA-LERS

Flight info

Callsign LIC0032
Flight time 0h 57m
Altitude 34000
Route ALCOL N747 YES M985 VLC L34 CASIM N608 MATEX M182 AMPOL
Aircraft A320/M-SDE3FGHIRWY/LB1

Departure

Time 2026-05-07 12:22
Airport Córdoba Airport (LEBA)

Arrival

Time 2026-05-07 13:19
Airport Reus Airport (LERS)
Time Latitude Longitude Altitude Speed Heading
2026-05-07 12:01 37.84380 -4.84511 313 ft 0 kts 116°
2026-05-07 12:17 37.84378 -4.84505 313 ft 1 kts 119°
2026-05-07 12:17 37.84373 -4.84507 313 ft 1 kts 174°
2026-05-07 12:17 37.84368 -4.84519 311 ft 4 kts 234°
2026-05-07 12:17 37.84330 -4.84573 313 ft 10 kts 223°
2026-05-07 12:18 37.84323 -4.84664 312 ft 13 kts 298°
2026-05-07 12:18 37.84363 -4.84775 309 ft 15 kts 258°
2026-05-07 12:18 37.84291 -4.84823 309 ft 15 kts 209°
2026-05-07 12:18 37.84172 -4.84904 307 ft 24 kts 207°
2026-05-07 12:19 37.84021 -4.85017 307 ft 25 kts 208°
2026-05-07 12:19 37.83863 -4.85124 305 ft 27 kts 208°
2026-05-07 12:19 37.83703 -4.85237 307 ft 26 kts 210°
2026-05-07 12:19 37.83538 -4.85342 307 ft 23 kts 198°
2026-05-07 12:20 37.83444 -4.85354 306 ft 9 kts 191°
2026-05-07 12:20 37.83438 -4.85409 305 ft 7 kts 339°
2026-05-07 12:20 37.83456 -4.85402 304 ft 0 kts 30°
2026-05-07 12:21 37.83510 -4.85363 305 ft 40 kts 28°
2026-05-07 12:21 37.84042 -4.85000 306 ft 131 kts 29°
2026-05-07 12:21 37.85001 -4.84341 769 ft 152 kts 27°
2026-05-07 12:22 37.85893 -4.83673 1660 ft 157 kts 32°
2026-05-07 12:22 37.86799 -4.82693 2061 ft 188 kts 63°
2026-05-07 12:22 37.86970 -4.81017 2431 ft 204 kts 110°
2026-05-07 12:22 37.86088 -4.79601 2864 ft 214 kts 156°
2026-05-07 12:23 37.84669 -4.79385 3670 ft 212 kts 195°
2026-05-07 12:23 37.83345 -4.80201 4568 ft 214 kts 218°
2026-05-07 12:23 37.82449 -4.81705 5390 ft 221 kts 250°
2026-05-07 12:23 37.82071 -4.83603 6262 ft 224 kts 253°
2026-05-07 12:24 37.81557 -4.85465 7051 ft 227 kts 241°
2026-05-07 12:24 37.80514 -4.87055 7426 ft 248 kts 214°
2026-05-07 12:24 37.78831 -4.87776 7918 ft 267 kts 181°
2026-05-07 12:24 37.77049 -4.87160 8679 ft 278 kts 148°
2026-05-07 12:25 37.75757 -4.85320 9508 ft 290 kts 116°
2026-05-07 12:25 37.75406 -4.82790 10209 ft 304 kts 87°
2026-05-07 12:25 37.75872 -4.80073 10498 ft 330 kts 71°
2026-05-07 12:25 37.76798 -4.77321 10886 ft 348 kts 64°
2026-05-07 12:26 37.77908 -4.74572 11589 ft 354 kts 63°
2026-05-07 12:26 37.79041 -4.71779 12353 ft 359 kts 64°
2026-05-07 12:26 37.80129 -4.68921 13114 ft 363 kts 65°
2026-05-07 12:26 37.81168 -4.65983 13866 ft 368 kts 67°
2026-05-07 12:27 37.82160 -4.62988 14534 ft 372 kts 68°
2026-05-07 12:27 37.83117 -4.59977 15210 ft 375 kts 69°
2026-05-07 12:27 37.84083 -4.56895 15891 ft 379 kts 69°
2026-05-07 12:27 37.85058 -4.53783 16562 ft 382 kts 68°
2026-05-07 12:28 37.86046 -4.50642 17231 ft 386 kts 68°
2026-05-07 12:28 37.87050 -4.47474 17892 ft 390 kts 68°
2026-05-07 12:28 37.88087 -4.44290 18493 ft 394 kts 67°
2026-05-07 12:28 37.89163 -4.41082 19040 ft 398 kts 66°
2026-05-07 12:29 37.90263 -4.37854 19580 ft 402 kts 66°
2026-05-07 12:29 37.91380 -4.34585 20122 ft 407 kts 66°
2026-05-07 12:29 37.92504 -4.31277 20661 ft 411 kts 66°
2026-05-07 12:29 37.93618 -4.27976 21197 ft 415 kts 66°
2026-05-07 12:30 37.94753 -4.24597 21740 ft 419 kts 66°
2026-05-07 12:30 37.95895 -4.21177 22277 ft 423 kts 66°
2026-05-07 12:30 37.97044 -4.17718 22799 ft 427 kts 66°
2026-05-07 12:30 37.98199 -4.14233 23317 ft 431 kts 66°
2026-05-07 12:31 37.99363 -4.10711 23766 ft 435 kts 66°
2026-05-07 12:31 38.00541 -4.07161 24156 ft 438 kts 66°
2026-05-07 12:31 38.01727 -4.03587 24552 ft 442 kts 65°
2026-05-07 12:31 38.02920 -3.99983 24941 ft 445 kts 65°
2026-05-07 12:32 38.04122 -3.96349 25324 ft 448 kts 65°
2026-05-07 12:32 38.05318 -3.92734 25685 ft 452 kts 65°
2026-05-07 12:32 38.06535 -3.89047 26050 ft 455 kts 65°
2026-05-07 12:32 38.07759 -3.85331 26413 ft 458 kts 65°
2026-05-07 12:33 38.10236 -3.77814 27132 ft 465 kts 65°
2026-05-07 12:33 38.11485 -3.74019 27472 ft 468 kts 65°
2026-05-07 12:33 38.12742 -3.70195 27821 ft 471 kts 65°
2026-05-07 12:34 38.13999 -3.66350 28156 ft 474 kts 65°
2026-05-07 12:34 38.15162 -3.62470 28474 ft 478 kts 71°
2026-05-07 12:34 38.15961 -3.58358 28789 ft 482 kts 77°
2026-05-07 12:34 38.16657 -3.54171 29106 ft 485 kts 77°
2026-05-07 12:35 38.17363 -3.49966 29403 ft 488 kts 77°
2026-05-07 12:35 38.18078 -3.45737 29684 ft 491 kts 77°
2026-05-07 12:35 38.18798 -3.41488 29969 ft 494 kts 77°
2026-05-07 12:35 38.19519 -3.37207 30219 ft 496 kts 77°
2026-05-07 12:36 38.20238 -3.32911 30463 ft 498 kts 77°
2026-05-07 12:36 38.20955 -3.28599 30699 ft 499 kts 77°
2026-05-07 12:36 38.21664 -3.24326 30941 ft 501 kts 77°
2026-05-07 12:36 38.22381 -3.19996 31255 ft 500 kts 77°
2026-05-07 12:37 38.23093 -3.15672 31572 ft 500 kts 78°
2026-05-07 12:37 38.23803 -3.11348 31866 ft 500 kts 78°
2026-05-07 12:37 38.24513 -3.07030 32148 ft 500 kts 78°
2026-05-07 12:37 38.25225 -3.02702 32470 ft 499 kts 78°
2026-05-07 12:38 38.25937 -2.98373 32750 ft 500 kts 78°
2026-05-07 12:38 38.26650 -2.94040 33044 ft 500 kts 78°
2026-05-07 12:38 38.27361 -2.89712 33337 ft 500 kts 78°
2026-05-07 12:38 38.28059 -2.85435 33626 ft 501 kts 78°
2026-05-07 12:39 38.28761 -2.81086 33878 ft 502 kts 78°
2026-05-07 12:39 38.29460 -2.76743 33951 ft 499 kts 78°
2026-05-07 12:39 38.30848 -2.68118 33955 ft 496 kts 78°
2026-05-07 12:40 38.32232 -2.59511 33957 ft 496 kts 78°
2026-05-07 12:40 38.33603 -2.50900 33954 ft 496 kts 78°
2026-05-07 12:41 38.34956 -2.42366 33956 ft 495 kts 78°
2026-05-07 12:41 38.37259 -2.34146 33958 ft 493 kts 60°
2026-05-07 12:42 38.41181 -2.27037 33951 ft 490 kts 50°
2026-05-07 12:42 38.45408 -2.20210 33947 ft 490 kts 50°
2026-05-07 12:43 38.49608 -2.13367 33947 ft 490 kts 51°
2026-05-07 12:43 38.53812 -2.06512 33944 ft 490 kts 51°
2026-05-07 12:44 38.57995 -1.99700 33942 ft 491 kts 51°
2026-05-07 12:44 38.62202 -1.92831 33948 ft 491 kts 52°
2026-05-07 12:45 38.66408 -1.85948 33957 ft 491 kts 52°
2026-05-07 12:45 38.70606 -1.79052 33966 ft 491 kts 52°
2026-05-07 12:46 38.74770 -1.72191 33970 ft 491 kts 53°
2026-05-07 12:46 38.78966 -1.65272 33968 ft 492 kts 53°
2026-05-07 12:47 38.83168 -1.58345 33967 ft 492 kts 53°
2026-05-07 12:47 38.87361 -1.51398 33958 ft 493 kts 54°
2026-05-07 12:48 38.91556 -1.44432 33952 ft 494 kts 54°
2026-05-07 12:48 38.95732 -1.37495 33947 ft 495 kts 54°
2026-05-07 12:49 38.99941 -1.30482 33942 ft 495 kts 55°
2026-05-07 12:49 39.04146 -1.23464 33945 ft 496 kts 55°
2026-05-07 12:50 39.08361 -1.16409 33952 ft 497 kts 55°
2026-05-07 12:50 39.12541 -1.09381 33953 ft 498 kts 55°
2026-05-07 12:51 39.16757 -1.02295 33955 ft 499 kts 56°
2026-05-07 12:51 39.20978 -0.95188 33956 ft 499 kts 56°
2026-05-07 12:52 39.25195 -0.88063 33958 ft 500 kts 56°
2026-05-07 12:52 39.29420 -0.80922 33965 ft 501 kts 56°
2026-05-07 12:53 39.33614 -0.73810 33961 ft 501 kts 56°
2026-05-07 12:53 39.37839 -0.66632 33958 ft 502 kts 56°
2026-05-07 12:54 39.42068 -0.59433 33958 ft 503 kts 56°
2026-05-07 12:54 39.46298 -0.52222 33955 ft 504 kts 54°
2026-05-07 12:55 39.51382 -0.46011 33952 ft 510 kts 36°
2026-05-07 12:55 39.57351 -0.41042 33956 ft 510 kts 33°
2026-05-07 12:56 39.63331 -0.36055 33956 ft 511 kts 33°
2026-05-07 12:56 39.69306 -0.31043 33962 ft 512 kts 33°
2026-05-07 12:57 39.75255 -0.26066 33960 ft 512 kts 33°
2026-05-07 12:57 39.81259 -0.21045 33658 ft 514 kts 33°
2026-05-07 12:58 39.84267 -0.18518 33350 ft 514 kts 33°
2026-05-07 12:58 39.87286 -0.15978 32144 ft 522 kts 33°
2026-05-07 12:58 39.90334 -0.13414 31212 ft 518 kts 33°
2026-05-07 12:58 39.93315 -0.10907 30649 ft 505 kts 33°
2026-05-07 12:59 39.96242 -0.08446 29904 ft 497 kts 33°
2026-05-07 12:59 39.99127 -0.06019 29191 ft 488 kts 33°
2026-05-07 12:59 40.01942 -0.03642 28537 ft 478 kts 34°
2026-05-07 12:59 40.04704 -0.01302 27890 ft 469 kts 34°
2026-05-07 13:00 40.07380 0.00967 27258 ft 460 kts 34°
2026-05-07 13:00 40.10033 0.03217 26632 ft 452 kts 34°
2026-05-07 13:00 40.12654 0.05439 26027 ft 444 kts 34°
2026-05-07 13:00 40.15226 0.07620 25443 ft 437 kts 34°
2026-05-07 13:01 40.17753 0.09770 24868 ft 429 kts 34°
2026-05-07 13:01 40.20228 0.11878 24324 ft 422 kts 34°
2026-05-07 13:01 40.22743 0.13797 23828 ft 414 kts 25°
2026-05-07 13:01 40.25384 0.15167 23340 ft 404 kts 16°
2026-05-07 13:02 40.28057 0.16163 22874 ft 394 kts 15°
2026-05-07 13:02 40.30672 0.17136 22435 ft 389 kts 15°
2026-05-07 13:02 40.33230 0.18094 22002 ft 386 kts 15°
2026-05-07 13:02 40.35802 0.19060 21559 ft 383 kts 15°
2026-05-07 13:03 40.38354 0.20021 21119 ft 380 kts 15°
2026-05-07 13:03 40.40888 0.20976 20652 ft 378 kts 15°
2026-05-07 13:03 40.43409 0.21929 20187 ft 377 kts 15°
2026-05-07 13:03 40.45925 0.22879 19717 ft 375 kts 15°
2026-05-07 13:04 40.48435 0.23825 19239 ft 374 kts 15°
2026-05-07 13:04 40.50937 0.24769 18756 ft 374 kts 15°
2026-05-07 13:04 40.53406 0.25830 18265 ft 374 kts 23°
2026-05-07 13:04 40.55659 0.27428 17740 ft 372 kts 35°
2026-05-07 13:05 40.57645 0.29581 17259 ft 369 kts 46°
2026-05-07 13:05 40.59341 0.32088 16794 ft 366 kts 50°
2026-05-07 13:05 40.61011 0.34612 16309 ft 364 kts 50°
2026-05-07 13:05 40.62672 0.37117 15846 ft 363 kts 50°
2026-05-07 13:06 40.64327 0.39612 15379 ft 361 kts 50°
2026-05-07 13:06 40.65977 0.42099 14915 ft 360 kts 50°
2026-05-07 13:06 40.67595 0.44545 14456 ft 358 kts 50°
2026-05-07 13:06 40.69231 0.47018 13976 ft 358 kts 50°
2026-05-07 13:07 40.70861 0.49484 13477 ft 357 kts 50°
2026-05-07 13:07 40.72485 0.51943 12996 ft 354 kts 50°
2026-05-07 13:07 40.74093 0.54379 12495 ft 349 kts 49°
2026-05-07 13:07 40.75662 0.56762 12063 ft 339 kts 49°
2026-05-07 13:08 40.77163 0.59044 11938 ft 320 kts 49°
2026-05-07 13:08 40.78590 0.61216 11691 ft 308 kts 50°
2026-05-07 13:08 40.79979 0.63338 11374 ft 303 kts 50°
2026-05-07 13:08 40.81349 0.65431 11128 ft 299 kts 50°
2026-05-07 13:09 40.82687 0.67475 10879 ft 298 kts 50°
2026-05-07 13:09 40.84039 0.69540 10517 ft 297 kts 50°
2026-05-07 13:09 40.85390 0.71600 10088 ft 297 kts 50°
2026-05-07 13:09 40.86737 0.73658 9762 ft 294 kts 50°
2026-05-07 13:10 40.88077 0.75707 9310 ft 294 kts 50°
2026-05-07 13:10 40.89401 0.77733 8945 ft 289 kts 50°
2026-05-07 13:10 40.90712 0.79742 8365 ft 289 kts 50°
2026-05-07 13:10 40.92131 0.81590 7867 ft 286 kts 35°
2026-05-07 13:11 40.93930 0.82637 7406 ft 283 kts 12°
2026-05-07 13:11 40.95851 0.82693 6936 ft 281 kts 349°
2026-05-07 13:11 40.97673 0.81806 6463 ft 280 kts 333°
2026-05-07 13:11 40.99393 0.80645 6142 ft 271 kts 333°
2026-05-07 13:12 41.01082 0.79775 5920 ft 251 kts 352°
2026-05-07 13:12 41.02744 0.79994 5609 ft 234 kts 24°
2026-05-07 13:12 41.04090 0.81194 5495 ft 235 kts 51°
2026-05-07 13:12 41.04895 0.83051 5300 ft 232 kts 70°
2026-05-07 13:13 41.05468 0.84983 4995 ft 219 kts 70°
2026-05-07 13:13 41.06007 0.86821 4694 ft 209 kts 71°
2026-05-07 13:13 41.06519 0.88569 4411 ft 199 kts 71°
2026-05-07 13:13 41.07004 0.90226 4146 ft 193 kts 71°
2026-05-07 13:14 41.07474 0.91836 3950 ft 180 kts 71°
2026-05-07 13:14 41.07915 0.93342 3702 ft 170 kts 72°
2026-05-07 13:14 41.08329 0.94752 3493 ft 158 kts 72°
2026-05-07 13:14 41.08715 0.96060 3297 ft 147 kts 72°
2026-05-07 13:15 41.09076 0.97289 3138 ft 137 kts 73°
2026-05-07 13:15 41.09417 0.98457 2950 ft 134 kts 72°
2026-05-07 13:15 41.09752 0.99601 2781 ft 133 kts 73°
2026-05-07 13:15 41.10085 1.00743 2611 ft 133 kts 73°
2026-05-07 13:16 41.10420 1.01888 2447 ft 133 kts 73°
2026-05-07 13:16 41.10755 1.03037 2274 ft 133 kts 74°
2026-05-07 13:16 41.11087 1.04179 2104 ft 132 kts 74°
2026-05-07 13:16 41.11418 1.05313 1928 ft 132 kts 73°
2026-05-07 13:17 41.11750 1.06446 1764 ft 131 kts 73°
2026-05-07 13:17 41.12074 1.07555 1579 ft 131 kts 73°
2026-05-07 13:17 41.12403 1.08687 1409 ft 130 kts 72°
2026-05-07 13:17 41.12728 1.09805 1224 ft 131 kts 73°
2026-05-07 13:18 41.13057 1.10931 1049 ft 131 kts 73°
2026-05-07 13:18 41.13274 1.11673 934 ft 130 kts 73°
2026-05-07 13:18 41.13707 1.13155 692 ft 130 kts 72°
2026-05-07 13:18 41.14031 1.14269 529 ft 129 kts 73°
2026-05-07 13:19 41.14355 1.15382 357 ft 130 kts 72°
2026-05-07 13:19 41.14676 1.16474 265 ft 128 kts 72°
2026-05-07 13:19 41.14941 1.17425 240 ft 66 kts 71°
2026-05-07 13:19 41.15076 1.17877 244 ft 46 kts 68°
2026-05-07 13:20 41.15167 1.18175 243 ft 20 kts 66°
2026-05-07 13:20 41.15245 1.18269 243 ft 14 kts 347°
2026-05-07 13:20 41.15324 1.18243 242 ft 10 kts 334°
2026-05-07 13:20 41.15336 1.18167 242 ft 9 kts 256°
2026-05-07 13:21 41.15324 1.18118 242 ft 8 kts 250°
2026-05-07 13:21 41.15303 1.18047 242 ft 9 kts 248°
2026-05-07 13:21 41.15282 1.17977 242 ft 8 kts 248°
2026-05-07 13:21 41.15248 1.17864 242 ft 17 kts 248°
2026-05-07 13:22 41.15200 1.17700 242 ft 19 kts 249°
2026-05-07 13:22 41.15156 1.17542 241 ft 18 kts 250°
2026-05-07 13:22 41.15129 1.17443 241 ft 17 kts 250°
2026-05-07 13:22 41.15084 1.17288 241 ft 20 kts 248°
2026-05-07 13:23 41.15032 1.17116 241 ft 22 kts 248°
2026-05-07 13:23 41.14971 1.16906 240 ft 26 kts 249°
2026-05-07 13:23 41.14905 1.16684 240 ft 23 kts 249°
2026-05-07 13:23 41.14841 1.16461 240 ft 15 kts 249°
2026-05-07 13:24 41.14816 1.16374 240 ft 14 kts 249°
2026-05-07 13:24 41.14784 1.16264 240 ft 8 kts 249°
2026-05-07 13:24 41.14783 1.16202 240 ft 6 kts 306°
2026-05-07 13:24 41.14818 1.16176 240 ft 6 kts 340°
2026-05-07 13:25 41.14843 1.16165 240 ft 0 kts 340°